| time (UTC) | temp F | wind direction | speed MPH | gust MPH | rain 1hr in | rain 24hr in | rain mn in | humidity % | barometer mb |
| 20260902070029 | 74 | 150 | 0.0 | 0.0 | 0.00 | 0.00 | 0.00 | 57 | 1013.6 |
| 20260902064528 | 74 | 150 | 0.0 | 0.0 | 0.00 | 0.00 | 0.00 | 57 | 1013.7 |
| 20260902063026 | 75 | 150 | 0.0 | 0.0 | 0.00 | 0.00 | 0.00 | 57 | 1013.6 |
| 20260902061526 | 75 | 150 | 0.0 | 0.0 | 0.00 | 0.00 | 0.00 | 56 | 1013.6 |
| 20260902060026 | 75 | 150 | 0.0 | 0.0 | 0.00 | 0.00 | 0.00 | 56 | 1013.3 |
| 20260902054524 | 75 | 150 | 0.0 | 0.0 | 0.00 | 0.00 | 0.00 | 56 | 1013.4 |
| 20260902053022 | 76 | 150 | 0.0 | 0.0 | 0.00 | 0.00 | 0.00 | 56 | 1013.4 |
| 20260902051520 | 76 | 150 | 0.0 | 0.0 | 0.00 | 0.00 | 0.00 | 55 | 1013.4 |
| 20260902050019 | 76 | 150 | 0.0 | 0.0 | 0.00 | 0.00 | 0.00 | 55 | 1013.3 |
| 20260902044519 | 77 | 150 | 0.0 | 0.0 | 0.00 | 0.00 | 0.00 | 54 | 1013.3 |
| 20260902043016 | 77 | 150 | 0.0 | 0.0 | 0.00 | 0.00 | 0.00 | 53 | 1013.3 |
| 20260902041517 | 77 | 150 | 0.0 | 0.0 | 0.00 | 0.00 | 0.00 | 51 | 1013.2 |
| 20260902040016 | 78 | 150 | 0.0 | 0.0 | 0.00 | 0.00 | 0.00 | 51 | 1013.3 |
| 20260902034517 | 79 | 150 | 0.0 | 0.0 | 0.00 | 0.00 | 0.00 | 50 | 1013.4 |
| 20260902033015 | 79 | 150 | 0.0 | 0.0 | 0.00 | 0.00 | 0.00 | 50 | 1013.4 |
| 20260902031515 | 80 | 150 | 0.0 | 0.0 | 0.00 | 0.00 | 0.00 | 49 | 1013.1 |
| 20260902030014 | 80 | 150 | 0.0 | 0.0 | 0.00 | 0.00 | 0.00 | 48 | 1013.0 |
| 20260902024513 | 81 | 150 | 0.0 | 0.0 | 0.00 | 0.00 | 0.00 | 47 | 1012.8 |
| 20260902023015 | 82 | 150 | 0.0 | 0.0 | 0.00 | 0.00 | 0.00 | 46 | 1012.8 |
| 20260902021512 | 83 | 150 | 0.0 | 0.0 | 0.00 | 0.00 | 0.00 | 45 | 1012.9 |
| 20260902020012 | 84 | 150 | 0.0 | 0.0 | 0.00 | 0.00 | 0.00 | 42 | 1012.7 |
| 20260902014528 | 85 | 150 | 0.0 | 0.0 | 0.00 | 0.00 | 0.00 | 40 | 1012.6 |
| 20260902013012 | 87 | 150 | 0.0 | 0.0 | 0.00 | 0.00 | 0.00 | 37 | 1012.5 |
| 20260902011523 | 89 | 150 | 0.0 | 0.0 | 0.00 | 0.00 | 0.00 | 34 | 1012.4 |
| 20260902010010 | 91 | 150 | 0.0 | 0.0 | 0.00 | 0.00 | 0.00 | 31 | 1012.4 |
| 20260902004510 | 92 | 150 | 0.0 | 2.0 | 0.00 | 0.00 | 0.00 | 29 | 1012.4 |
| 20260902003011 | 94 | 150 | 0.0 | 0.0 | 0.00 | 0.00 | 0.00 | 29 | 1012.4 |
| 20260902001508 | 95 | 150 | 0.0 | 0.0 | 0.00 | 0.00 | 0.00 | 28 | 1012.5 |
| 20260902000007 | 96 | 150 | 0.0 | 2.0 | 0.00 | 0.00 | 0.00 | 27 | 1012.6 |
| 20260901234507 | 96 | 150 | 0.0 | 3.0 | 0.00 | 0.00 | 0.00 | 27 | 1012.7 |
| 20260901233005 | 96 | 161 | 0.0 | 3.0 | 0.00 | 0.00 | 0.00 | 25 | 1012.7 |
| 20260901231505 | 97 | 103 | 0.0 | 3.0 | 0.00 | 0.00 | 0.00 | 26 | 1012.8 |
| 20260901230004 | 97 | 261 | 0.0 | 4.0 | 0.00 | 0.00 | 0.00 | 25 | 1012.6 |
| 20260901224504 | 97 | 77 | 0.0 | 3.0 | 0.00 | 0.00 | 0.00 | 25 | 1012.7 |
| 20260901223007 | 98 | 178 | 1.0 | 4.0 | 0.00 | 0.00 | 0.00 | 23 | 1012.9 |
| 20260901221502 | 99 | 63 | 0.0 | 6.0 | 0.00 | 0.00 | 0.00 | 23 | 1012.7 |
| 20260901220004 | 99 | 103 | 1.0 | 6.0 | 0.00 | 0.00 | 0.00 | 22 | 1012.7 |
| 20260901214500 | 100 | 281 | 1.0 | 5.0 | 0.00 | 0.00 | 0.00 | 22 | 1012.8 |
| 20260901213121 | 100 | 94 | 2.0 | 8.0 | 0.00 | 0.00 | 0.00 | 19 | 1013.0 |
| 20260901211558 | 100 | 113 | 1.0 | 9.0 | 0.00 | 0.00 | 0.00 | 22 | 1013.0 |
| 20260901210113 | 101 | 130 | 0.0 | 3.0 | 0.00 | 0.00 | 0.00 | 23 | 1013.2 |
| 20260901204555 | 101 | 50 | 2.0 | 6.0 | 0.00 | 0.00 | 0.00 | 22 | 1013.3 |
| 20260901203053 | 101 | 208 | 1.0 | 4.0 | 0.00 | 0.00 | 0.00 | 22 | 1013.6 |
| 20260901201552 | 100 | 194 | 1.0 | 7.0 | 0.00 | 0.00 | 0.00 | 25 | 1013.6 |
| 20260901200053 | 100 | 128 | 1.0 | 6.0 | 0.00 | 0.00 | 0.00 | 20 | 1013.7 |
| 20260901194554 | 101 | 85 | 0.0 | 6.0 | 0.00 | 0.00 | 0.00 | 22 | 1013.9 |
| 20260901193048 | 100 | 269 | 0.0 | 8.0 | 0.00 | 0.00 | 0.00 | 24 | 1014.2 |
| 20260901191551 | 100 | 200 | 1.0 | 5.0 | 0.00 | 0.00 | 0.00 | 24 | 1014.1 |
| 20260901190052 | 99 | 169 | 1.0 | 4.0 | 0.00 | 0.00 | 0.00 | 23 | 1014.3 |
| 20260901184544 | 99 | 92 | 1.0 | 4.0 | 0.00 | 0.00 | 0.00 | 26 | 1014.4 |
| 20260901183100 | 98 | 138 | 1.0 | 7.0 | 0.00 | 0.00 | 0.00 | 27 | 1014.6 |
| 20260901181536 | 98 | 157 | 2.0 | 6.0 | 0.00 | 0.00 | 0.00 | 28 | 1014.9 |
| 20260901180034 | 97 | 293 | 1.0 | 7.0 | 0.00 | 0.00 | 0.00 | 28 | 1015.1 |
| 20260901174532 | 96 | 205 | 3.0 | 9.0 | 0.00 | 0.00 | 0.00 | 28 | 1015.1 |
| 20260901173036 | 95 | 119 | 1.0 | 7.0 | 0.00 | 0.00 | 0.00 | 31 | 1015.4 |
| 20260901171525 | 94 | 191 | 1.0 | 6.0 | 0.00 | 0.00 | 0.00 | 34 | 1015.7 |
| 20260901170022 | 93 | 110 | 0.0 | 8.0 | 0.00 | 0.00 | 0.00 | 33 | 1015.5 |
| 20260901164518 | 92 | 107 | 1.0 | 5.0 | 0.00 | 0.00 | 0.00 | 34 | 1015.8 |
| 20260901163014 | 91 | 351 | 1.0 | 3.0 | 0.00 | 0.00 | 0.00 | 36 | 1016.0 |
| 20260901161510 | 89 | 261 | 0.0 | 7.0 | 0.00 | 0.00 | 0.00 | 40 | 1016.0 |
| 20260901160008 | 88 | 123 | 1.0 | 7.0 | 0.00 | 0.00 | 0.00 | 38 | 1016.1 |
| 20260901154502 | 87 | 126 | 0.0 | 4.0 | 0.00 | 0.00 | 0.00 | 43 | 1016.0 |
| 20260901153106 | 85 | 115 | 0.0 | 3.0 | 0.00 | 0.00 | 0.00 | 45 | 1016.1 |
| 20260901151553 | 84 | 121 | 0.0 | 3.0 | 0.00 | 0.00 | 0.00 | 51 | 1016.1 |
| 20260901150101 | 82 | 121 | 0.0 | 1.0 | 0.00 | 0.00 | 0.00 | 52 | 1016.1 |
| 20260901144546 | 80 | 128 | 0.0 | 3.0 | 0.00 | 0.00 | 0.00 | 54 | 1016.2 |
| 20260901143042 | 78 | 134 | 0.0 | 3.0 | 0.00 | 0.00 | 0.00 | 56 | 1016.1 |
| 20260901141553 | 76 | 138 | 0.0 | 3.0 | 0.00 | 0.00 | 0.00 | 57 | 1016.2 |
| 20260901140045 | 74 | 158 | 0.0 | 1.0 | 0.00 | 0.00 | 0.00 | 60 | 1016.2 |
| 20260901134538 | 73 | 159 | 0.0 | 1.0 | 0.00 | 0.00 | 0.00 | 60 | 1016.3 |
| 20260901133038 | 72 | 159 | 0.0 | 0.0 | 0.00 | 0.00 | 0.00 | 61 | 1016.4 |
| 20260901131539 | 71 | 159 | 0.0 | 1.0 | 0.00 | 0.00 | 0.00 | 62 | 1016.3 |
| 20260901130038 | 70 | 159 | 0.0 | 0.0 | 0.00 | 0.00 | 0.00 | 63 | 1016.3 |
| 20260901124544 | 69 | 159 | 0.0 | 0.0 | 0.00 | 0.00 | 0.00 | 63 | 1016.1 |
| 20260901123033 | 69 | 159 | 0.0 | 0.0 | 0.00 | 0.00 | 0.00 | 63 | 1015.9 |
| 20260901121531 | 69 | 159 | 0.0 | 0.0 | 0.00 | 0.00 | 0.00 | 62 | 1015.7 |
| 20260901120030 | 69 | 159 | 0.0 | 0.0 | 0.00 | 0.00 | 0.00 | 61 | 1015.6 |
| 20260901114528 | 69 | 159 | 0.0 | 0.0 | 0.00 | 0.00 | 0.00 | 60 | 1015.5 |
| 20260901113026 | 69 | 159 | 0.0 | 0.0 | 0.00 | 0.00 | 0.00 | 60 | 1015.3 |
| 20260901111524 | 70 | 159 | 0.0 | 0.0 | 0.00 | 0.00 | 0.00 | 60 | 1015.2 |
| 20260901110023 | 70 | 159 | 0.0 | 0.0 | 0.00 | 0.00 | 0.00 | 59 | 1015.2 |
| 20260901104521 | 71 | 159 | 0.0 | 0.0 | 0.00 | 0.00 | 0.00 | 59 | 1015.0 |
| 20260901103020 | 71 | 159 | 0.0 | 0.0 | 0.00 | 0.00 | 0.00 | 59 | 1014.9 |
| 20260901101518 | 71 | 159 | 0.0 | 0.0 | 0.00 | 0.00 | 0.00 | 59 | 1014.9 |
| 20260901100018 | 71 | 159 | 0.0 | 0.0 | 0.00 | 0.00 | 0.00 | 60 | 1014.7 |
| 20260901094522 | 71 | 159 | 0.0 | 0.0 | 0.00 | 0.00 | 0.00 | 61 | 1014.6 |
| 20260901093015 | 70 | 159 | 0.0 | 0.0 | 0.00 | 0.00 | 0.00 | 61 | 1014.6 |
| 20260901091514 | 70 | 159 | 0.0 | 0.0 | 0.00 | 0.00 | 0.00 | 60 | 1014.4 |
| 20260901090012 | 71 | 159 | 0.0 | 0.0 | 0.00 | 0.00 | 0.00 | 60 | 1014.2 |
| 20260901084511 | 71 | 159 | 0.0 | 0.0 | 0.00 | 0.00 | 0.00 | 60 | 1014.1 |
| 20260901083010 | 71 | 159 | 0.0 | 0.0 | 0.00 | 0.00 | 0.00 | 59 | 1014.1 |
| 20260901081507 | 72 | 159 | 0.0 | 0.0 | 0.00 | 0.00 | 0.00 | 59 | 1014.1 |
| 20260901080006 | 72 | 159 | 0.0 | 0.0 | 0.00 | 0.00 | 0.00 | 59 | 1013.9 |
| 20260901074505 | 72 | 159 | 0.0 | 0.0 | 0.00 | 0.00 | 0.00 | 58 | 1013.9 |
| 20260901073003 | 72 | 159 | 0.0 | 0.0 | 0.00 | 0.00 | 0.00 | 58 | 1014.2 |
| 20260901071502 | 73 | 159 | 0.0 | 0.0 | 0.00 | 0.00 | 0.00 | 56 | 1014.2 |